Flag for Switzerland Weather past 2 weeks in Montreux, Vaud, Switzerland

Now
62 °F

Partly sunny.


Feels Like: 62 °F
Forecast: 51 / 64 °F
Wind: 1 mph from Northwest

Location: Aigle

Current Time: Jul 29, 2015 at 9:15:35 AM

Latest Report: Jul 29, 2015 at 8:00 AM


Visibility: 11 mi

Pressure: 29.84 "Hg

Humidity: 82%

Dew point: 57 °F

Location of MontreuxLocation

Historic Weather in Montreux — Graph

°F

Montreux temperature yesterday

Maximum temperature yesterday: 74 °F (at 5:00 PM)
Minimum temperature yesterday: 58 °F (at 4:00 AM)
Average temperature yesterday: 67 °F

Past Weeks' High & Low Weather Summary

 TemperatureHumidityPressure
High94 °F (Jul 16, 4:00 PM)98% (Jul 24, 5:00 AM)30.21 "Hg (Jul 24, 5:00 AM)
Low51 °F (Jul 26, 7:00 AM)14% (Jul 16, 5:00 PM)29.71 "Hg (Jul 24, 4:00 PM)
Average73 °F64%29.95 "Hg
* Reported Jul 14 7:00 AM — Jul 29 7:00 AM, Montreux, Weather by CustomWeather, © 2015

Note: Actual official high and low records may vary slightly from our data, if they occured in-between our weather recording intervals... More about our weather records

Advertising

Montreux weather history for previous 24 hours

 ConditionsComfort  
Time TempWeatherWind HumidityBarometerVisibility
7:00 AM
Wed, Jul 29
62 °FCool.2 mph81%29.86 "HgN/A
6:00 AM62 °FCool.1 mph78%29.87 "HgN/A
4:00 AM66 °FMild.6 mph60%29.86 "HgN/A
3:00 AM65 °FMild.5 mph60%29.86 "HgN/A
2:00 AM65 °FMild.3 mph61%29.87 "HgN/A
1:00 AM64 °FMild.2 mph69%29.89 "HgN/A
12:00 AM69 °FMild.3 mph49%29.89 "HgN/A
10:00 PM
Tue, Jul 28
70 °FMild.7 mph50%29.86 "HgN/A
9:00 PM69 °FMild.3 mph51%29.85 "HgN/A
8:00 PM70 °FPartly sunny.5 mph48%29.84 "Hg25 mi
7:00 PM72 °FMild.8 mph40%29.82 "HgN/A
6:00 PM73 °FMild.12 mph42%29.83 "HgN/A
5:00 PM74 °FScattered clouds.13 mph40%29.83 "Hg19 mi
4:00 PM73 °FMild.13 mph44%29.84 "HgN/A
3:00 PM74 °FMild.16 mph42%29.84 "HgN/A
2:00 PM72 °FScattered clouds.16 mph44%29.86 "Hg19 mi
1:00 PM71 °FMild.14 mph47%29.87 "HgN/A
12:00 PM71 °FMild.14 mph49%29.88 "HgN/A
11:00 AM69 °FScattered clouds.15 mph53%29.89 "Hg16 mi
10:00 AM68 °FMild.14 mph52%29.90 "HgN/A
Weather by CustomWeather, © 2015

See weather overviewHow to use our weather pages